RH
13 22 20 17 16 14 10 6 5 7 8 12 10 15 43 53 57 59 48 57 62 62 34 40 38 37 39 40 36 24 17 32 44 58 51 54 55 51 48 46 46 47 48 50 48 47 48 49 47
13 19 16 14 16 12 8 6 7 6 14 12 18 16 30 59 70 71 67 64 76 64 44 45 44 42 40 39 42 36 23 22 24 34 43 50 47 44 42 45 45 48 48 48 50 48 48 47 48
16 19 15 13 11 10 8 7 6 17 18 13 17 22 40 56 66 72 70 65 68 75 65 48 46 44 42 42 44 45 36 25 21 23 29 36 39 40 39 42 43 44 45 48 49 47 47 46 46
14 14 13 11 9 6 5 6 6 14 18 16 18 43 69 78 79 84 72 66 66 80 74 55 49 47 48 46 45 47 46 38 28 24 25 28 31 33 35 37 39 41 42 43 48 46 45 45 47
11 12 12 11 9 6 5 6 6 7 16 17 16 41 66 84 84 79 72 69 78 83 67 59 52 52 51 49 48 49 50 49 42 36 30 30 30 32 35 36 38 39 40 40 42 44 42 41 45
10 11 12 10 7 5 5 6 7 7 12 14 15 36 65 84 86 76 75 79 86 79 57 57 55 53 53 52 52 50 50 53 51 50 47 42 39 38 39 40 40 40 41 40 40 41 43 43 44
9 10 12 10 8 6 5 6 8 8 10 13 15 20 72 81 84 77 79 86 94 89 59 56 54 52 54 55 55 55 54 54 54 57 58 58 57 54 51 48 48 48 48 49 50 50 52 52 52
8 10 11 9 8 6 8 8 9 9 11 14 18 22 59 79 77 79 86 92 97 95 86 56 54 54 55 57 58 60 61 60 59 59 59 60 63 67 68 66 64 61 59 58 59 59 61 64 64
8 10 10 7 6 7 9 10 10 8 13 19 27 38 51 66 76 80 86 89 98 96 99 91 64 61 60 60 60 61 63 66 68 68 67 70 78 82 83 70 70 71 71 70 70 70 72 73 75
8 11 9 6 7 9 8 8 10 10 14 20 25 53 67 73 74 76 78 82 94 96 92 93 94 96 79 66 72 71 74 78 80 79 84 83 88 99 100 99 91 87 83 82 82 82 83 82 82
9 11 8 7 7 9 9 9 8 9 11 14 19 44 66 69 70 70 68 72 83 88 85 84 78 78 80 91 61 56 68 65 68 100 98 100 100 100 100 99 95 98 98 98 99 97 95 90 90
10 9 10 10 8 8 9 9 8 8 8 10 13 23 47 64 66 64 60 62 70 77 80 74 67 64 67 57 58 76 84 90 88 55 86 98 80 98 95 97 97 97 92 96 96 99 100 92 96
13 11 11 11 9 8 9 9 9 9 9 10 12 23 56 58 61 61 56 55 63 67 67 62 53 49 37 38 44 46 49 56 48 45 39 93 98 84 95 96 94 91 93 94 90 86 88 92 95
15 13 12 12 11 10 9 9 9 9 9 9 10 25 46 50 53 56 53 52 59 60 63 59 48 36 30 25 25 24 22 24 29 24 25 62 89 88 97 97 93 88 90 88 88 82 82 82 90
19 19 15 14 12 11 10 10 10 8 8 8 10 12 24 41 46 52 52 50 54 56 59 59 50 36 28 25 22 18 16 17 20 22 28 38 57 62 89 97 97 93 88 87 87 84 82 84 84
24 21 24 15 11 10 10 15 9 8 8 8 9 12 16 25 38 45 49 49 52 52 58 62 58 41 31 26 22 19 19 21 24 22 27 36 42 50 85 83 82 79 82 81 79 77 74 72 72
29 34 25 18 11 11 10 14 9 8 8 8 8 11 14 22 30 37 44 49 50 51 55 64 64 44 35 30 26 21 22 24 28 29 27 34 39 49 60 61 51 57 55 49 49 45 39 43 46
30 25 21 20 14 12 12 13 11 9 8 9 11 12 14 17 22 31 39 46 48 50 54 65 67 53 41 35 30 26 28 28 31 34 28 28 32 37 41 38 37 40 42 33 30 27 21 22 17
26 26 26 21 16 17 17 15 12 11 11 10 11 12 13 13 18 25 35 44 48 48 53 66 68 64 50 38 32 27 26 29 32 29 28 29 32 34 36 30 26 24 20 14 10 11 17 26 15
25 27 27 22 18 19 18 18 16 14 14 13 12 11 13 13 13 21 32 43 48 48 53 68 73 75 64 53 44 40 38 37 36 32 32 28 24 20 18 16 16 26 19 15 15 16 36 40 20
26 29 30 29 23 20 22 24 20 16 15 14 14 13 11 13 14 14 34 42 48 50 51 63 73 79 72 72 66 66 67 53 42 32 30 20 13 11 13 16 18 22 27 21 20 22 40 62 39
34 26 29 27 29 35 22 36 24 19 16 14 13 14 13 12 12 14 29 43 47 51 52 57 68 75 78 70 67 70 62 48 40 32 22 14 12 14 16 19 24 26 28 28 29 31 40 67 61
32 26 30 29 32 33 30 33 27 18 17 17 19 21 23 23 22 14 15 40 44 53 56 59 66 71 77 72 69 72 70 57 50 43 26 18 16 18 20 23 25 28 30 32 32 34 38 52 57
23 27 28 28 31 49 33 31 29 21 21 19 20 23 30 32 33 28 22 25 53 58 62 64 66 67 74 76 76 76 66 63 61 51 36 24 23 22 24 28 29 29 31 36 38 39 38 42 49
25 32 48 56 58 57 26 29 23 30 23 22 26 29 32 35 38 35 34 44 53 59 62 65 67 69 70 75 80 80 71 69 62 54 46 45 44 37 32 33 35 34 32 34 38 38 36 35 39
31 33 48 56 63 46 33 39 28 32 25 28 27 27 28 30 35 40 37 39 48 54 59 64 69 73 71 73 79 82 80 75 66 61 69 74 62 59 47 42 40 38 34 34 33 32 32 30 27
38 41 33 54 53 74 44 27 20 45 48 31 28 25 20 20 23 30 38 40 32 48 55 62 66 74 75 71 75 83 86 81 69 69 70 75 80 65 54 43 38 36 30 25 20 19 17 19 23
31 28 51 57 75 64 37 31 31 45 36 31 30 20 16 20 28 30 31 42 48 48 53 59 65 72 73 72 76 82 89 83 71 74 74 77 75 63 52 47 37 29 21 18 17 14 16 24 30
29 36 41 43 59 67 54 40 48 48 37 32 24 18 14 24 29 33 36 42 46 54 59 63 67 73 75 72 77 88 88 80 74 76 76 72 68 59 51 42 35 25 21 20 24 15 17 27 25
32 43 44 86 61 63 61 54 28 29 22 17 16 14 13 24 31 34 37 42 47 53 63 70 76 83 81 75 80 86 86 81 83 84 83 78 69 64 53 40 32 27 23 21 18 21 28 35 47
Wind_Speed
5 9 10 11 5 8 16 18 5 6 0 8 6 12 20 22 8 13 19 13 17 17 19 17 14 12 11 10 9 10 10 10 10 10 9 9 8 6 6 6 6 6 5 4 3 3 3 3 4
7 3 8 9 8 12 10 7 8 2 15 6 11 4 15 9 12 16 16 17 8 10 21 18 15 13 11 10 9 8 8 10 9 10 10 9 8 7 6 6 7 6 5 5 3 2 2 1 2
11 6 9 5 11 13 15 9 9 17 11 2 3 5 9 9 11 11 18 20 12 11 17 19 17 14 13 11 10 9 8 9 9 9 9 9 8 8 8 8 8 7 6 6 5 3 2 1 1
8 9 10 7 15 19 12 9 5 10 5 5 6 10 10 8 5 12 22 19 18 21 17 20 18 15 13 11 10 10 9 9 9 8 9 9 9 9 9 9 9 8 8 8 7 6 5 3 3
8 9 9 14 18 19 7 2 8 8 9 7 8 12 10 8 12 18 20 19 20 18 19 20 18 15 13 12 11 11 10 10 9 9 9 10 10 10 10 10 10 10 10 9 9 8 7 6 5
10 15 10 13 18 14 5 3 3 10 8 8 10 14 8 12 16 17 18 18 18 17 20 19 17 16 14 13 12 12 12 11 11 11 11 11 11 12 12 12 12 11 11 11 11 10 9 8 7
13 10 15 19 18 19 14 6 4 11 12 12 8 6 11 17 16 17 18 19 16 14 16 18 17 16 14 14 13 13 12 12 12 12 12 13 13 14 14 14 14 13 13 13 12 12 11 11 10
14 9 19 16 15 17 6 8 3 14 13 6 7 5 8 24 25 21 19 16 17 15 13 18 16 16 15 14 13 11 10 10 11 12 12 13 14 15 15 16 16 16 16 15 15 14 14 13 12
12 8 13 18 14 14 11 6 10 15 14 3 3 10 7 24 24 22 20 18 17 17 17 15 16 17 15 13 12 11 11 11 12 13 13 13 14 13 16 17 16 17 17 17 16 16 15 14 13
9 9 17 18 11 13 18 6 10 13 13 10 12 13 16 21 25 24 24 22 19 18 18 17 15 14 10 10 11 11 11 12 13 13 13 16 16 14 16 14 16 17 15 14 14 14 13 13 12
16 14 17 23 18 14 14 19 15 13 13 18 15 19 18 20 23 25 23 22 20 18 16 17 17 16 14 13 8 2 3 8 12 11 11 13 14 16 18 17 16 14 12 10 10 9 9 9 7
13 19 17 22 23 22 11 19 21 19 20 19 20 23 26 27 26 25 24 23 21 20 18 18 18 18 19 17 13 16 16 13 9 14 13 11 14 12 14 15 16 14 13 13 11 10 11 10 10
14 17 24 25 26 23 21 21 20 23 21 19 17 9 25 26 26 25 23 24 22 21 20 19 21 22 20 16 17 16 14 14 17 15 10 11 7 9 11 12 14 16 17 17 15 15 14 14 12
19 26 24 23 24 24 21 23 22 24 24 25 22 18 22 23 24 24 25 27 27 23 24 23 22 22 20 20 17 14 14 11 13 13 10 15 11 9 4 6 8 11 14 15 14 15 14 15 12
16 19 18 22 23 22 26 24 22 26 27 27 25 23 21 25 23 26 26 27 27 25 24 25 23 23 22 20 15 13 12 12 13 11 11 12 14 11 11 13 14 17 16 13 12 12 12 10 7
19 20 19 18 21 26 24 21 17 22 26 27 24 21 19 18 23 26 26 24 23 26 25 24 24 23 21 18 16 14 13 12 12 11 10 11 12 10 12 13 16 13 12 12 13 13 12 11 12
10 15 20 21 17 17 11 17 15 22 16 19 24 23 21 22 27 27 28 27 27 27 28 25 25 24 22 19 17 16 12 12 12 10 10 10 11 11 13 14 11 10 10 10 11 11 9 9 11
14 16 19 18 15 15 17 16 13 22 20 18 18 17 23 25 27 28 28 29 26 27 29 26 26 24 24 21 19 15 15 14 12 12 10 11 11 12 12 11 9 9 9 9 8 8 5 6 6
17 21 23 21 20 20 16 17 16 17 22 24 21 22 22 24 29 28 30 30 27 26 29 27 26 26 24 24 21 20 17 16 15 14 11 11 11 12 11 9 9 9 8 6 6 6 5 6 2
20 18 17 19 19 18 19 21 17 15 20 24 27 21 27 25 27 32 34 35 34 28 25 22 22 24 22 20 18 16 17 16 15 14 13 12 12 11 11 9 9 8 7 6 6 6 6 3 1
16 15 19 21 21 22 19 23 20 24 30 35 35 30 22 24 25 22 32 37 36 33 29 25 21 22 21 14 15 17 20 19 19 16 15 15 14 14 12 12 10 10 8 6 5 6 9 3 1
18 15 17 19 17 14 13 18 16 18 18 19 22 25 20 16 19 20 23 38 37 36 34 31 25 24 22 18 19 24 26 23 19 17 19 17 16 15 14 12 11 10 8 7 6 6 9 7 5
21 19 16 12 15 18 15 12 12 14 9 14 19 34 33 25 24 10 17 36 38 35 34 27 25 24 22 23 23 25 22 15 17 20 19 19 18 16 15 13 11 10 8 7 6 7 8 9 7
10 12 12 14 13 13 14 14 15 6 9 12 16 23 27 27 27 22 18 9 32 25 22 23 24 23 22 22 25 22 20 18 25 24 20 20 19 18 16 14 12 11 10 8 7 7 7 8 7
9 8 5 4 4 10 14 11 11 9 14 13 14 20 22 23 22 21 22 10 19 17 17 21 22 25 23 24 26 19 18 24 23 22 19 18 18 18 17 15 14 12 10 9 7 6 5 5 5
15 15 7 6 6 11 15 7 1 7 17 17 15 15 14 13 12 12 14 13 6 15 18 23 23 23 23 24 27 24 22 23 22 21 16 18 17 17 18 17 14 11 10 10 8 6 5 3 2
17 14 13 14 11 4 8 14 14 16 11 10 10 12 15 12 16 19 13 7 8 8 17 23 26 23 24 25 27 24 26 26 22 20 22 20 21 20 19 17 15 13 11 9 8 6 4 4 3
12 3 7 4 4 9 13 15 6 12 6 7 4 7 15 9 13 19 21 14 6 10 14 20 26 27 22 25 28 28 27 25 25 28 28 28 26 21 20 17 16 14 11 10 8 5 5 5 4
7 12 6 5 5 3 7 6 12 11 8 8 2 12 18 4 5 10 16 19 17 10 13 19 26 28 24 27 30 30 31 30 30 32 31 29 25 23 20 18 16 14 12 10 8 5 6 5 4
2 7 7 4 9 7 8 16 14 4 3 13 15 20 21 5 3 7 12 17 17 16 13 19 21 21 25 27 29 31 30 31 31 32 30 28 25 22 21 19 17 14 12 10 8 8 7 6 6
Wind_Direction
295 336 323 292 243 230 256 251 92 90 65 62 15 48 88 45 21 101 139 130 164 165 169 164 164 165 161 151 144 136 141 155 163 168 167 170 168 166 169 168 169 165 169 165 140 112 94 79 60
332 16 271 272 253 275 274 76 82 359 88 103 62 26 70 64 83 118 126 138 151 166 170 168 170 174 173 172 161 149 147 158 166 170 173 180 181 183 183 184 184 185 185 189 184 156 127 89 39
340 335 287 225 237 260 288 47 12 84 76 132 156 39 55 97 101 132 141 149 144 135 174 170 176 181 182 182 176 167 168 166 169 175 180 188 194 197 197 195 197 200 199 206 205 207 210 200 255
314 245 246 258 270 286 316 9 342 110 110 184 155 98 87 61 116 146 139 147 146 164 188 177 180 185 188 188 189 188 183 182 180 187 190 196 202 206 205 204 206 211 212 214 221 222 226 225 235
261 272 262 264 264 261 261 19 327 290 165 225 205 129 108 122 130 136 144 154 165 190 200 181 181 186 191 193 198 197 197 197 203 202 203 210 211 213 214 214 214 218 221 223 229 232 231 229 234
273 241 272 269 275 310 65 40 304 269 204 201 244 127 117 149 139 150 151 158 176 194 171 176 183 190 195 200 202 205 209 208 217 215 216 219 221 223 223 224 225 225 229 233 236 242 240 243 241
260 289 275 288 293 290 315 157 225 269 245 212 215 244 141 154 153 156 155 161 160 193 173 177 184 189 196 202 205 210 214 218 225 226 228 231 233 234 233 234 236 236 236 240 243 249 251 255 253
261 286 276 273 277 291 49 27 15 285 273 171 199 222 163 169 159 162 162 160 170 173 176 181 185 189 195 198 201 210 218 227 235 237 240 243 244 243 242 240 240 241 242 244 248 252 255 258 263
269 264 267 270 304 340 70 10 308 282 283 127 82 42 114 161 157 162 162 166 172 176 172 194 189 195 201 202 207 210 218 225 233 237 238 238 238 242 240 244 246 249 249 248 251 255 258 263 267
230 261 261 287 349 323 326 329 298 288 272 202 169 101 131 155 164 168 171 173 179 179 186 186 189 191 187 191 197 207 217 226 232 239 238 236 241 233 239 249 248 247 251 252 252 254 259 259 263
255 256 277 291 316 319 310 305 285 269 249 251 215 166 159 173 178 176 181 181 179 183 178 188 185 184 161 196 186 193 267 262 249 231 222 233 235 237 240 244 247 254 247 244 246 255 261 258 269
266 271 287 293 293 292 264 272 270 257 255 259 247 218 191 180 190 188 187 184 180 179 178 191 190 183 172 193 170 186 190 204 253 253 231 250 250 243 244 250 252 247 242 230 213 216 225 242 230
272 270 261 266 269 265 273 269 270 274 272 273 261 212 175 182 190 192 193 186 183 179 186 191 193 192 194 185 193 203 206 217 231 252 228 220 242 246 233 246 248 248 240 238 241 242 240 241 246
288 292 289 288 282 283 271 267 266 260 264 264 253 192 181 194 196 195 196 190 185 184 198 194 198 198 197 203 210 212 219 229 234 244 234 220 209 214 221 223 237 247 242 238 241 246 248 252 241
306 292 279 266 263 260 260 259 252 262 262 255 242 245 206 190 207 202 201 194 189 193 203 201 200 199 201 211 211 218 224 229 238 242 233 227 227 225 200 193 203 218 234 234 237 249 252 252 254
285 274 271 268 260 253 237 261 267 272 243 236 241 228 229 212 208 209 204 197 194 197 204 201 204 204 206 208 210 218 215 223 235 236 229 225 225 219 205 217 223 232 232 230 230 238 243 231 237
243 261 272 280 278 260 216 267 280 263 257 298 216 221 231 213 214 211 205 199 198 198 206 206 207 206 203 206 210 218 213 219 224 230 224 220 222 212 210 225 235 222 232 234 230 233 239 232 241
259 253 255 263 261 265 240 252 256 264 261 255 282 201 226 224 219 209 206 201 201 201 210 209 211 208 206 204 210 211 204 216 216 222 229 223 217 212 220 228 218 210 220 228 225 223 229 235 255
263 273 281 288 299 309 297 287 285 285 284 284 216 225 247 255 218 214 205 202 198 201 210 209 214 212 207 207 207 210 210 212 214 222 219 221 217 209 207 207 198 210 216 218 206 205 189 239 261
265 275 283 290 282 278 280 279 288 288 276 271 270 239 214 233 258 208 201 195 196 198 209 206 219 222 213 212 208 214 214 213 219 217 211 209 206 205 207 207 198 201 206 202 190 177 150 266 118
261 272 279 281 290 291 298 286 279 264 254 248 248 248 240 211 240 255 191 195 196 195 210 207 217 230 223 211 197 196 208 212 215 212 206 204 204 205 206 202 194 193 204 196 182 162 166 162 96
260 279 283 291 298 284 301 294 294 299 290 274 305 216 231 239 226 253 204 195 203 202 207 214 212 225 233 202 207 213 218 215 216 209 207 204 202 201 201 198 194 191 191 185 180 169 154 153 153
275 276 281 295 289 293 277 271 286 286 309 39 37 32 34 28 15 280 278 208 208 203 206 214 205 216 226 208 219 222 226 215 213 208 210 203 200 197 195 194 193 194 191 195 189 174 165 171 170
306 289 266 270 266 264 275 264 284 280 41 51 40 38 36 24 16 10 6 251 178 192 196 210 205 215 221 218 220 233 224 208 203 214 208 200 197 194 193 192 193 194 191 192 188 179 181 174 183
238 268 262 264 229 248 267 280 283 81 56 62 55 44 39 30 20 14 22 89 162 181 196 209 215 210 217 224 228 227 215 229 225 226 208 197 196 193 189 188 191 196 191 194 195 193 193 198 180
223 227 225 255 266 289 307 252 344 147 93 76 76 57 42 37 23 23 9 22 200 204 213 214 219 213 220 227 232 219 214 232 224 227 196 204 203 199 188 189 193 192 188 191 197 198 193 195 192
229 248 252 259 293 303 251 275 293 79 49 33 47 12 355 12 356 10 360 344 315 244 225 225 230 221 221 226 232 223 215 221 210 212 204 199 201 204 193 190 190 188 189 185 199 199 197 194 214
234 337 221 217 228 240 252 249 245 56 59 36 16 12 339 5 4 353 339 329 301 263 255 241 239 231 227 228 227 219 219 215 206 203 202 201 206 198 190 189 189 186 186 184 186 187 193 203 197
206 222 220 236 222 243 265 252 123 75 352 311 290 335 332 34 359 340 335 336 321 275 243 250 239 239 235 235 224 216 216 209 210 208 210 209 202 197 187 189 187 183 178 175 188 185 192 197 182
178 200 239 233 227 225 261 262 302 42 310 326 331 338 330 20 14 326 331 331 322 303 252 245 247 237 230 238 227 223 216 211 212 211 210 204 195 192 190 185 184 181 178 176 178 182 177 171 157